Theta_e
294 294 294 295 295 295 296 296 297 297 297 297 297 297 296 296 296 294 292 291 291 290 290 289 289 288 288 287 287 286 286 287 287 286 286 285 285 285 284 285 285 285 285 286 286 286 286 286 286 286 286 286 286 287 287 287 286 287 288 288 289 290 290 291 291 290 290 290 290 291 291 292 292 292
293 293 293 294 294 294 295 295 295 296 296 296 296 297 296 296 296 295 294 293 292 291 290 289 289 288 288 287 286 286 286 286 287 286 286 285 285 284 284 284 285 285 285 286 286 286 286 286 285 285 285 285 285 286 287 286 286 287 287 288 288 289 290 290 290 289 290 290 290 290 291 291 291 292
293 293 293 293 293 293 294 294 294 294 295 295 295 296 296 296 296 296 295 295 294 292 291 290 289 288 288 287 286 286 286 286 286 287 286 286 285 284 284 284 285 284 285 285 286 286 286 285 285 285 284 283 284 285 286 286 286 286 287 287 288 289 289 289 288 288 289 289 289 290 290 290 291 291
293 293 292 292 293 293 293 293 293 294 294 294 294 295 295 295 295 295 295 296 294 292 291 290 289 289 288 286 286 285 286 286 286 287 286 285 285 284 284 284 284 284 284 285 285 285 285 285 284 284 283 282 283 284 285 286 286 285 286 287 287 288 288 288 288 287 288 288 288 289 289 290 290 290
293 293 292 292 292 292 292 292 293 293 293 293 293 293 294 294 295 295 295 296 293 290 290 290 289 288 287 286 286 285 285 286 286 286 286 285 285 284 284 284 284 284 284 284 285 285 285 284 283 283 282 282 282 282 283 284 285 285 286 286 286 287 287 286 286 287 287 287 288 289 289 289 289 290
292 292 292 292 292 292 292 292 292 292 292 292 293 293 293 293 293 294 294 294 293 289 289 289 288 288 287 286 286 285 285 286 286 286 285 285 284 284 283 283 283 283 283 284 284 284 285 284 283 282 282 282 282 282 283 283 284 285 285 286 285 285 284 283 284 286 286 287 287 288 288 288 288 289
292 292 292 292 292 291 291 291 291 291 291 292 292 292 292 292 292 293 293 293 292 289 288 288 287 287 286 286 286 285 285 285 285 285 285 284 284 283 282 282 282 282 283 283 283 283 284 283 282 282 281 281 282 282 282 282 283 284 284 284 283 283 282 281 283 285 285 286 286 286 286 286 287 288
292 292 292 292 291 291 291 291 290 291 291 291 291 291 291 292 292 292 291 292 292 290 288 287 287 286 286 285 285 285 284 284 285 284 284 283 283 282 282 281 282 282 282 282 282 283 283 283 282 281 281 281 281 281 282 281 282 282 282 282 281 281 281 281 283 284 284 284 285 284 284 286 287 287
292 292 291 291 291 291 290 290 290 290 290 290 290 291 291 291 291 291 290 291 291 290 288 287 286 285 285 284 284 284 284 283 283 283 283 282 282 281 281 281 281 281 281 282 282 282 283 282 281 281 281 282 281 281 282 282 282 282 281 281 281 281 281 281 283 283 283 283 283 283 283 284 285 286
291 291 291 291 291 291 290 290 290 290 290 290 290 290 290 290 290 290 290 290 290 290 289 287 286 285 284 284 283 283 283 283 283 282 282 281 281 281 281 281 281 281 281 282 282 282 282 282 281 281 281 281 282 282 282 282 282 281 281 281 281 280 281 281 282 283 282 282 282 281 282 282 283 285
290 290 291 291 290 290 290 290 290 289 289 289 289 290 290 290 289 289 289 289 289 289 288 286 285 284 284 283 283 282 282 282 282 282 281 281 281 281 281 281 281 281 281 281 281 281 281 281 281 281 281 281 281 282 282 282 281 281 281 280 280 280 280 281 281 282 281 281 281 281 281 281 282 284
290 290 290 290 290 290 290 290 289 289 289 289 289 289 289 289 289 289 288 288 288 288 287 286 284 284 283 283 282 282 281 281 282 282 281 282 281 281 281 281 281 281 281 281 280 281 280 280 280 280 280 281 281 281 281 281 281 280 280 280 279 280 280 280 281 281 280 280 280 280 281 281 281 282
289 289 289 289 289 289 289 289 289 289 289 289 289 289 289 289 288 288 288 287 287 287 287 285 284 283 283 282 282 281 281 281 282 282 282 282 283 282 282 281 281 282 281 281 281 281 280 280 280 280 280 281 281 281 281 281 280 280 279 279 279 279 280 280 280 280 280 280 280 280 280 280 280 281
289 289 289 289 289 289 289 289 289 289 289 288 288 288 288 288 288 288 288 287 287 287 287 286 284 283 283 282 282 282 282 281 282 282 282 283 283 283 282 282 282 282 281 281 281 281 281 280 280 279 280 280 280 280 280 280 280 279 279 279 279 280 280 280 280 280 280 279 280 280 281 280 280 281
288 288 288 288 288 289 289 289 289 288 288 288 288 288 288 288 288 288 288 287 287 287 287 286 285 284 284 283 283 282 282 282 282 282 282 282 283 283 283 283 282 282 281 281 281 281 281 281 280 279 279 280 280 280 280 280 280 279 279 279 279 280 280 279 279 279 279 280 280 281 281 281 281 281
288 288 288 288 288 288 288 288 288 288 288 288 288 288 287 287 288 288 288 288 287 287 287 286 285 285 285 284 283 283 283 282 282 282 282 282 283 283 283 283 283 282 281 281 281 281 281 280 279 278 279 280 280 280 280 280 279 279 279 279 279 280 279 279 279 279 279 280 280 281 280 280 280 280
288 288 288 288 288 288 288 288 288 288 287 287 287 287 287 287 287 287 287 288 288 287 287 286 286 285 285 284 284 283 283 283 282 283 282 282 282 283 283 283 283 282 281 281 280 280 280 279 279 278 279 280 280 280 280 280 280 279 279 279 279 279 279 279 279 278 278 279 279 279 279 279 279 279
288 288 288 288 288 288 288 288 287 287 287 287 287 287 287 287 286 286 287 287 287 287 287 287 287 286 286 285 285 284 284 284 283 283 283 283 283 283 283 283 283 282 281 280 279 279 279 278 278 278 279 279 279 280 280 280 280 279 279 279 279 279 279 279 279 278 278 278 278 278 278 278 278 278
288 288 288 288 288 287 287 287 287 287 287 286 286 286 286 286 286 286 286 286 286 287 287 287 287 286 286 285 285 284 283 283 283 283 283 283 283 282 282 282 281 280 280 280 279 279 279 278 278 278 278 278 279 279 279 280 279 279 279 279 279 279 279 279 279 278 278 278 278 278 278 278 278 278
288 288 288 287 287 287 287 287 287 287 287 286 286 286 286 286 285 285 285 285 286 286 286 286 286 286 286 285 284 284 283 283 283 282 282 282 282 281 281 280 279 279 279 279 278 278 278 278 278 278 278 277 278 279 279 279 279 279 279 279 279 279 279 278 278 278 277 277 277 277 277 277 277 277
288 288 288 287 287 287 287 287 286 286 286 286 285 285 285 285 285 285 285 285 285 285 285 285 285 285 285 284 283 283 283 283 282 282 281 281 281 281 280 280 279 278 278 277 277 277 277 277 277 277 277 277 277 279 280 279 279 279 279 279 279 278 278 277 277 277 277 277 277 277 277 277 277 277
288 288 288 288 287 287 287 287 286 286 286 286 285 285 285 285 285 284 284 284 284 284 284 284 283 283 283 283 283 283 282 282 282 282 281 281 281 280 280 280 278 278 277 277 276 276 276 277 276 276 276 276 277 278 279 279 279 279 278 278 278 278 277 277 277 277 277 277 276 276 277 277 277 277
288 288 288 288 288 287 287 287 286 286 286 286 285 285 285 284 284 284 284 283 283 283 283 282 282 282 282 282 282 282 282 282 282 282 281 281 280 280 280 279 278 278 277 276 276 276 276 276 277 276 276 276 277 277 277 278 278 277 278 278 277 277 276 276 276 276 276 276 276 276 277 277 277 277
288 288 288 288 288 288 287 287 286 285 285 285 285 285 284 284 284 284 284 283 283 283 282 282 282 282 282 282 281 281 281 281 281 281 281 281 281 280 279 278 278 279 277 276 276 276 276 276 276 276 275 276 276 276 276 277 277 276 277 276 276 276 275 275 275 275 275 275 275 276 277 277 277 277
287 288 288 288 288 288 287 287 286 286 285 285 285 285 285 284 284 284 283 283 283 282 282 281 281 281 281 281 281 281 281 280 280 280 280 280 280 280 279 278 277 277 276 276 276 276 275 275 275 275 274 274 274 274 274 275 275 275 275 275 275 275 275 275 275 274 274 275 275 275 276 276 276 276
287 287 287 288 288 287 287 287 286 286 286 286 285 285 285 284 284 284 283 283 282 282 282 281 281 281 281 281 280 280 280 280 279 279 279 279 279 279 279 278 277 277 276 275 276 275 275 274 274 274 274 273 273 273 273 274 274 274 274 274 274 274 274 274 274 274 274 274 274 275 275 276 276 276
286 286 287 287 287 287 287 286 286 286 286 286 286 285 285 284 284 283 283 282 282 281 281 281 280 280 280 280 280 280 280 279 279 278 278 278 278 277 277 277 277 276 275 275 275 275 274 274 273 273 273 273 273 273 273 273 274 274 274 274 274 274 274 274 274 274 274 274 274 274 275 275 275 275
285 286 286 287 287 287 286 286 286 286 286 286 286 286 285 284 284 283 282 282 281 281 281 281 280 280 280 280 279 279 278 278 277 277 277 276 276 276 276 275 275 274 274 274 274 274 273 273 273 272 272 272 272 272 272 272 273 273 274 274 274 274 273 274 274 274 274 274 274 274 274 274 274 274
285 286 286 287 287 286 285 285 286 286 286 286 286 286 286 285 284 283 282 281 281 281 281 281 280 280 279 279 278 278 277 277 276 276 275 275 275 275 274 274 273 273 273 273 273 273 273 272 272 271 271 271 271 271 271 272 272 272 273 273 273 273 273 273 273 273 273 273 273 273 273 273 273 273
285 285 286 287 287 286 285 285 285 285 285 285 285 286 286 285 284 283 282 281 281 281 280 280 280 279 279 278 277 277 276 275 275 275 274 273 273 273 273 272 272 272 272 273 273 273 272 272 271 270 270 270 270 270 271 271 271 271 272 272 272 273 273 273 273 273 273 273 273 273 273 273 273 273
284 285 286 286 286 285 285 285 285 285 285 285 285 285 285 285 284 283 282 281 281 280 280 280 279 279 278 277 276 276 275 274 274 274 273 272 272 272 272 272 271 271 271 272 272 272 271 271 270 270 270 270 270 270 270 271 271 271 271 272 272 272 272 272 273 273 273 273 273 273 273 273 273 273
283 284 285 286 286 285 284 284 284 284 284 284 284 284 285 285 284 282 281 281 281 280 280 280 279 277 276 276 275 275 274 273 273 273 273 272 271 271 271 270 270 270 270 271 271 271 271 270 269 269 270 270 270 270 270 270 271 271 271 271 271 271 272 272 272 272 272 272 272 272 272 272 272 273
283 284 284 285 284 284 283 283 283 284 284 284 284 284 284 284 283 282 280 280 280 280 280 279 277 276 275 275 274 274 273 272 272 272 272 272 271 270 270 270 270 269 269 270 270 270 270 269 269 269 270 270 270 270 270 270 271 271 271 271 271 271 271 271 272 272 272 272 272 272 272 272 272 272
283 283 284 284 284 283 283 283 283 283 283 283 283 283 284 284 282 280 280 280 280 279 279 278 276 275 274 273 273 273 272 271 271 271 272 271 271 270 269 269 270 270 270 270 270 270 269 269 269 269 269 269 269 270 270 270 270 270 270 270 271 271 271 271 271 272 271 271 271 271 271 271 271 271
283 283 283 282 283 283 282 282 282 283 283 283 283 283 283 283 282 280 279 280 279 278 278 276 274 273 273 273 272 272 271 270 270 270 270 270 270 269 269 269 269 270 270 269 269 270 269 269 269 269 269 269 270 270 270 270 270 270 270 270 270 270 271 271 271 271 271 271 271 271 271 270 270 271
283 283 283 282 282 282 282 282 282 282 282 282 282 282 282 282 281 279 279 279 278 277 276 274 273 273 273 272 272 271 271 270 269 269 269 269 269 269 269 269 269 269 269 269 269 269 269 269 269 270 270 270 270 270 271 271 271 271 270 270 270 270 270 271 271 271 270 270 270 270 270 270 270 270
283 283 283 282 282 282 282 282 282 282 282 282 282 282 282 281 280 279 278 278 277 276 275 274 273 273 272 272 271 271 270 270 269 268 268 268 268 268 268 269 269 269 269 269 269 269 269 269 270 270 270 270 270 270 271 271 271 271 271 270 270 270 271 270 270 270 270 269 269 270 270 270 270 270
284 283 282 282 281 282 282 281 281 282 282 281 281 281 280 279 278 277 277 276 275 275 274 273 273 272 272 271 270 270 269 269 268 268 268 268 268 268 268 268 268 268 268 268 268 269 269 269 270 270 270 270 270 270 271 271 270 271 271 271 270 270 270 270 269 269 269 269 269 269 269 270 270 270
283 283 282 281 281 281 281 281 281 281 281 280 280 279 278 277 276 276 275 275 274 274 273 273 272 271 271 270 270 269 269 268 268 268 268 268 268 268 268 268 268 268 268 268 268 269 269 269 269 270 270 270 270 270 270 270 269 269 269 269 269 269 269 269 269 269 269 269 269 269 269 269 270 270
283 283 283 282 281 281 281 281 281 281 280 279 278 278 277 276 275 274 274 274 273 273 272 272 271 270 270 269 269 269 268 268 268 268 268 267 268 268 268 268 268 268 268 268 269 269 269 269 269 270 270 269 269 269 269 268 268 268 268 268 269 269 269 269 269 269 269 269 269 269 269 269 269 269
283 283 282 282 281 281 281 280 280 280 279 278 277 277 276 275 274 274 274 273 272 272 271 271 270 269 269 269 269 268 268 268 268 268 268 268 268 268 268 268 268 268 268 268 269 269 269 269 269 269 269 269 269 268 268 267 267 268 268 268 268 269 269 269 269 269 269 269 269 269 269 269 269 269
283 283 282 281 281 281 280 280 279 278 277 277 276 276 275 274 273 273 273 272 271 271 270 270 269 269 268 268 268 268 268 268 268 268 268 268 267 268 268 268 268 268 268 268 269 269 269 269 269 269 269 268 268 267 267 267 267 268 268 268 268 268 268 269 269 269 269 269 269 269 269 269 269 269
283 282 282 281 281 280 280 279 278 277 276 276 275 274 273 272 272 272 272 271 270 270 269 269 268 268 268 268 268 268 268 268 268 267 267 267 267 267 267 267 267 268 268 268 269 269 269 269 269 268 268 268 267 267 267 267 267 267 267 267 267 267 267 267 268 268 268 268 269 269 269 269 269 269
283 282 281 280 280 279 278 278 277 276 276 275 274 273 272 271 271 271 271 270 270 269 269 268 268 267 267 268 268 268 268 268 267 267 267 267 267 267 267 267 267 268 268 268 268 268 268 268 268 268 268 267 267 267 267 267 267 267 267 267 267 267 267 267 267 267 267 267 267 268 268 268 268 269
282 281 279 279 278 277 277 276 276 276 275 274 272 272 271 271 271 270 270 270 269 269 268 267 267 267 268 268 268 268 267 267 267 267 267 267 267 267 267 267 267 267 268 268 268 268 268 268 267 267 267 267 267 267 267 267 267 267 267 267 267 266 266 266 266 266 266 266 266 267 267 267 268 268
Wind_Speed
42 42 43 40 38 38 36 36 35 33 31 28 25 26 25 18 8 5 6 6 9 16 21 21 22 26 27 27 29 31 33 35 30 23 21 19 15 13 11 11 10 10 10 10 9 8 7 6 5 5 5 4 4 3 4 5 5 5 6 6 6 7 8 8 8 9 9 9 9 9 9 9 10 10
40 41 42 42 41 40 38 38 38 36 33 31 28 26 27 26 16 8 6 7 12 19 23 23 24 27 29 28 30 31 32 34 31 26 24 21 17 14 12 12 12 11 12 12 11 9 8 8 7 6 6 6 5 4 5 6 6 6 6 7 7 7 7 8 8 8 8 8 8 8 8 8 9 9
39 39 40 41 41 40 39 38 38 38 36 33 31 28 27 28 25 17 9 6 12 21 25 24 24 28 30 30 31 30 30 32 31 28 26 23 20 16 13 14 13 12 13 14 12 10 9 9 8 7 8 7 6 6 7 7 7 7 7 7 7 7 7 8 8 8 8 8 8 7 7 8 8 9
38 38 39 40 42 41 38 38 37 37 37 35 33 31 29 28 27 24 16 6 7 16 24 25 24 27 30 31 32 31 30 32 31 28 28 25 22 18 15 16 15 14 15 15 14 12 10 10 10 9 9 9 8 8 8 8 8 7 7 7 8 8 8 8 8 8 8 7 7 7 7 8 9 9
37 38 38 39 41 40 38 38 37 37 37 36 35 33 31 30 28 26 21 11 6 8 16 23 25 27 30 31 32 33 32 32 31 29 29 27 24 21 18 18 17 17 17 17 16 14 13 12 12 11 11 10 10 10 8 8 8 7 8 8 8 8 8 8 9 9 8 7 7 7 7 8 9 10
35 36 38 39 39 38 38 39 38 37 37 36 36 35 33 32 31 29 26 16 9 10 14 20 23 25 28 30 32 34 34 34 32 30 29 28 26 23 20 19 18 18 19 18 17 15 14 13 13 13 12 12 11 11 10 9 9 8 9 9 8 8 9 9 8 8 8 7 7 7 8 8 9 11
35 35 38 40 39 36 37 40 39 38 39 38 38 37 35 34 33 32 31 23 14 14 16 20 23 25 27 29 30 32 33 33 31 29 28 28 27 25 22 20 19 19 19 19 17 16 14 14 14 14 13 13 13 12 11 11 11 10 10 9 9 9 9 9 8 8 8 7 7 7 7 8 9 11
35 35 37 40 38 35 37 40 41 40 40 39 38 37 37 37 34 32 32 30 21 17 18 20 23 26 26 25 27 29 30 29 29 28 27 26 25 24 22 21 21 20 20 19 18 17 16 16 15 14 13 13 13 13 12 12 12 11 10 9 8 8 9 8 7 7 7 6 6 6 7 9 10 11
35 36 38 39 37 36 39 41 41 41 42 40 39 38 38 37 35 32 32 33 26 20 20 21 21 23 23 21 23 27 29 27 26 25 24 23 22 22 22 22 21 21 21 21 20 19 18 18 16 14 13 14 13 13 12 11 11 10 9 9 8 9 9 8 7 8 6 5 6 7 8 9 10 11
36 37 40 40 37 38 42 43 42 41 42 41 40 40 40 38 36 33 32 33 28 22 22 24 22 22 24 22 21 26 30 29 27 24 22 22 21 20 20 21 22 22 23 22 21 20 20 19 17 14 14 14 13 13 12 11 10 9 9 9 9 10 9 7 7 7 5 6 7 8 9 10 10 11
35 37 40 39 38 40 44 45 43 40 39 40 41 43 42 39 37 34 31 31 30 24 21 23 23 23 24 23 21 23 26 25 24 24 23 20 20 20 21 22 22 23 23 22 20 20 20 19 18 15 13 14 13 13 12 11 9 9 9 9 10 9 8 7 7 6 5 7 7 9 10 11 11 12
36 37 39 39 39 41 44 44 43 41 40 39 41 43 41 38 37 36 32 31 30 27 23 23 24 23 24 23 21 22 23 21 21 24 24 21 20 21 22 22 22 21 22 21 19 20 22 21 20 16 13 14 14 13 12 10 9 9 9 8 9 9 8 7 6 6 7 7 8 10 11 12 12 13
37 38 39 40 40 41 43 44 44 43 43 42 42 42 40 39 39 37 35 33 32 28 23 22 23 22 22 24 24 24 27 27 25 24 22 20 19 20 20 20 21 21 20 19 18 20 22 22 20 16 13 13 13 13 12 11 9 8 8 8 9 9 8 6 6 7 8 8 9 11 11 12 14 14
35 37 38 40 41 42 43 45 46 45 45 46 46 44 40 41 42 39 36 35 34 31 26 24 25 22 21 25 29 30 31 30 26 25 24 21 18 17 15 15 20 22 20 18 18 20 20 20 19 16 13 12 12 13 12 10 8 7 8 9 10 9 7 6 7 8 8 9 11 12 12 13 14 14
34 35 35 38 40 42 44 46 46 46 46 47 48 47 43 43 44 42 39 36 35 33 29 28 29 25 24 28 31 31 30 29 27 27 28 25 21 19 15 12 15 22 24 21 19 20 21 22 20 16 13 12 12 12 11 9 7 7 9 10 10 8 6 7 8 9 9 11 12 13 14 14 14 15
34 33 34 35 36 39 42 43 43 45 47 48 49 48 45 45 46 47 45 42 38 37 33 30 31 31 29 29 32 33 32 31 30 28 29 29 25 23 20 16 15 21 26 25 20 19 21 22 19 16 13 12 12 12 11 9 8 8 9 10 9 7 7 8 9 9 11 13 15 15 14 14 14 15
34 34 34 34 35 36 37 39 40 42 44 45 46 47 46 46 47 48 49 47 44 44 41 36 36 38 35 33 36 40 38 36 33 29 28 29 28 25 24 20 18 21 26 26 20 17 19 18 16 14 12 11 11 12 11 9 8 9 10 10 9 7 8 9 9 10 12 14 15 15 15 15 15 15
36 36 35 35 36 35 34 36 39 40 40 39 40 41 43 45 47 47 48 48 46 45 44 43 42 42 42 41 41 42 42 40 39 36 34 33 31 27 23 19 18 22 28 26 18 13 15 16 14 13 10 10 11 11 11 10 10 10 11 11 9 7 9 10 10 11 13 15 15 15 15 15 16 17
38 37 36 37 38 36 34 36 39 39 37 35 35 38 41 44 45 46 49 51 49 45 44 44 42 40 42 43 39 38 40 40 39 38 36 33 30 25 21 18 17 20 24 24 18 12 12 13 12 10 10 9 11 12 12 11 11 12 12 12 9 8 10 11 11 13 15 16 15 15 16 16 17 18
38 38 38 38 39 38 37 38 40 40 38 34 34 37 40 41 41 44 48 51 51 49 46 44 40 38 39 40 37 37 39 38 35 31 28 27 27 24 19 17 18 18 20 21 19 13 10 11 10 10 10 10 12 14 14 13 13 14 13 13 10 10 12 12 13 15 16 16 15 16 16 17 18 19
35 37 39 39 39 39 39 39 39 39 38 36 36 37 38 37 37 41 45 45 47 49 48 44 40 37 37 38 37 37 38 39 37 34 30 28 30 26 17 13 16 19 18 18 18 13 9 10 10 9 9 11 14 15 15 15 16 15 14 14 12 12 15 15 16 17 16 15 15 16 16 17 18 20
34 36 38 40 40 41 41 39 38 38 39 38 37 37 36 34 35 40 40 37 37 39 40 39 38 35 34 35 35 36 37 39 40 39 37 35 34 29 19 14 15 15 15 17 17 13 9 9 8 5 6 9 13 15 15 15 15 15 14 15 14 16 18 18 18 17 16 15 15 16 17 18 19 21
33 35 36 37 40 42 42 40 37 38 39 39 38 38 34 32 38 43 39 33 32 32 32 33 34 33 32 31 32 34 36 39 41 41 39 39 38 32 24 20 15 8 9 16 19 15 10 8 7 4 2 3 7 9 10 12 13 13 13 15 17 20 21 20 19 18 16 16 16 17 18 19 20 22
31 33 34 34 37 39 41 41 40 38 39 40 39 38 35 36 43 43 35 33 35 34 32 33 35 34 33 32 33 34 35 37 39 39 37 39 40 35 28 26 18 8 8 17 21 17 11 8 8 7 5 3 2 4 6 9 12 13 15 18 22 24 22 21 21 20 18 17 17 17 19 20 20 22
30 31 32 32 34 35 37 41 41 40 40 42 41 40 42 44 45 41 36 37 39 37 35 35 35 36 36 35 35 36 36 36 37 38 37 36 38 36 31 29 23 13 11 16 20 18 14 11 11 10 8 7 7 7 9 12 15 17 19 22 24 24 23 22 22 21 19 18 18 18 19 21 21 21
31 32 32 32 33 33 35 38 39 38 39 41 42 44 46 45 43 42 40 39 38 38 37 36 35 35 36 36 36 35 35 35 34 35 35 34 34 34 32 31 28 21 17 17 18 18 16 14 13 13 11 9 8 8 10 14 18 19 19 21 22 22 22 23 23 22 20 20 19 19 20 21 22 21
33 34 34 33 33 32 34 36 37 36 37 39 42 44 45 43 42 43 40 37 37 37 37 35 34 35 36 36 36 35 35 34 33 32 32 32 32 32 29 27 25 23 21 19 18 18 18 16 14 15 14 11 8 7 8 12 16 17 17 18 19 20 22 24 24 23 22 21 21 21 21 22 22 22
35 35 36 35 34 33 33 35 37 37 38 39 41 41 39 38 39 40 39 37 36 34 34 34 34 35 35 35 35 36 36 34 33 32 32 31 30 30 27 24 22 21 21 21 19 18 19 18 17 16 16 15 12 9 8 10 12 13 15 17 19 21 22 22 22 22 22 22 22 22 22 23 22 21
39 39 38 36 34 33 33 34 35 36 38 40 40 39 37 36 37 38 38 37 35 33 33 33 32 32 33 34 34 35 35 34 33 33 31 29 28 27 25 23 22 22 22 22 20 19 18 19 19 18 17 17 17 15 12 11 12 13 14 17 20 22 22 21 21 21 21 22 23 23 23 23 22 22
41 40 37 35 33 32 32 33 34 35 36 37 38 40 40 38 37 37 38 37 35 34 34 32 30 31 33 34 34 35 35 35 35 35 33 30 28 26 25 23 21 22 22 22 21 20 19 19 19 18 18 18 19 19 17 13 13 15 16 17 18 20 20 19 18 19 21 22 24 24 23 23 23 23
39 37 36 35 33 33 33 34 35 35 34 33 35 37 39 38 37 36 38 38 37 36 35 33 31 32 34 35 35 37 36 35 35 35 34 31 28 27 26 24 21 20 21 21 20 20 20 20 19 19 20 19 19 19 18 15 15 17 18 19 19 20 20 19 18 20 21 23 24 24 24 24 23 23
34 32 31 31 30 30 30 31 31 32 31 30 31 33 34 35 35 34 36 39 38 36 35 33 31 32 35 36 37 37 35 33 33 34 32 30 29 28 26 23 19 17 17 18 19 20 20 21 20 19 19 19 18 17 16 17 19 20 21 21 22 23 23 22 21 21 21 21 23 24 24 24 23 23
28 25 24 26 26 26 26 26 26 27 27 27 28 30 31 32 32 32 34 36 36 33 32 31 30 32 33 33 34 34 32 31 32 33 32 30 29 28 26 23 20 19 19 18 18 20 21 21 21 20 19 18 18 17 17 18 20 22 22 22 22 23 23 21 19 20 19 20 23 25 24 24 24 25
23 21 22 25 25 24 23 23 23 24 25 25 25 27 29 29 29 31 33 35 34 32 31 30 30 31 31 30 31 31 29 27 29 31 31 31 31 30 27 23 19 18 20 18 16 18 19 19 19 18 18 19 20 21 22 23 23 22 22 21 21 22 23 20 19 19 20 20 22 24 25 26 26 25
21 20 18 19 22 24 23 23 24 24 24 25 24 24 25 27 28 30 31 33 33 32 31 30 31 31 32 31 31 31 29 28 29 29 30 31 31 30 28 26 21 18 19 18 16 16 17 16 15 14 14 15 17 19 22 26 27 25 23 22 21 22 22 20 20 21 21 22 22 23 25 28 28 25
20 20 16 15 20 23 23 23 25 24 23 24 25 24 23 23 26 28 29 31 33 33 32 31 32 32 33 34 33 33 32 31 29 29 30 31 31 28 26 24 22 20 19 19 18 17 16 16 16 13 10 9 8 8 13 18 21 21 22 22 20 20 21 21 21 22 24 24 24 22 23 28 31 30
20 21 19 18 21 23 22 22 23 23 23 24 25 25 23 23 23 25 28 31 33 34 33 33 33 33 33 34 33 33 33 32 30 31 31 30 30 27 24 21 20 19 19 18 18 18 17 16 17 15 10 5 4 5 7 9 12 16 21 22 21 20 21 21 21 23 25 25 24 23 23 27 34 36
21 20 19 19 21 23 22 22 22 22 22 23 24 24 23 23 23 25 28 30 32 32 32 32 32 31 32 32 32 31 30 29 29 31 31 29 28 27 24 22 19 18 19 17 16 18 18 16 17 18 13 7 4 5 5 5 9 14 17 19 20 21 21 21 22 25 26 25 24 25 25 28 34 39
23 20 19 19 21 22 22 22 22 22 22 22 23 23 22 23 25 26 28 30 31 32 32 31 31 31 31 32 33 31 30 30 31 31 31 30 28 25 23 21 19 17 17 15 14 16 17 17 18 20 19 14 10 8 7 8 11 14 15 17 20 22 23 24 24 25 26 26 25 25 27 30 34 38
22 20 20 20 22 22 22 22 22 23 22 22 24 25 26 27 27 28 30 31 31 32 32 31 31 31 31 31 32 32 32 33 32 31 30 29 27 24 22 21 19 17 15 14 13 15 17 20 20 20 20 18 15 13 13 14 16 19 20 19 17 19 23 24 24 24 26 26 25 26 28 29 32 35
21 19 18 19 21 22 22 22 21 22 22 23 25 26 27 28 30 31 32 33 34 33 31 30 31 31 31 32 34 35 34 33 31 29 28 28 26 24 23 21 20 18 15 12 13 16 18 19 18 17 16 16 15 13 11 10 11 15 17 15 13 14 18 21 23 25 27 27 26 26 27 28 30 33
19 17 16 18 21 23 23 22 22 22 23 24 25 26 26 27 28 28 29 30 31 31 29 29 30 30 31 33 36 37 36 33 30 28 28 26 23 22 20 19 19 17 14 12 14 15 15 14 14 15 15 15 13 10 7 7 10 13 15 15 15 16 16 17 21 24 27 29 28 26 26 25 22 22
17 15 15 18 21 22 23 23 24 24 24 25 26 27 28 27 27 26 26 27 28 28 28 29 30 31 32 35 37 36 34 31 29 28 27 24 22 21 18 16 16 15 13 12 12 12 12 12 13 14 14 14 13 12 11 12 15 16 17 17 17 18 18 20 23 25 26 28 29 28 29 27 22 20
13 13 15 18 20 22 23 24 25 26 26 26 27 28 29 29 28 27 28 29 29 29 29 30 31 33 35 36 35 33 31 29 28 28 26 23 21 20 17 15 14 13 12 12 11 11 12 12 12 13 13 13 14 14 14 15 16 17 19 20 19 20 22 24 26 26 27 27 27 26 29 31 30 33
10 11 15 19 20 22 24 25 27 27 27 28 29 28 28 27 27 27 27 28 29 30 30 31 34 37 38 38 35 32 28 26 27 27 25 22 20 18 16 15 15 14 13 12 12 11 12 12 12 13 14 14 14 14 16 17 18 19 21 21 21 22 23 24 25 27 29 30 26 22 24 28 31 34
Wind_Direction
230 230 229 228 228 226 225 224 223 223 223 222 218 208 201 198 186 180 200 205 207 204 200 200 204 208 209 210 212 213 217 220 217 214 221 226 224 219 216 216 216 220 228 234 234 231 226 221 213 210 217 228 237 250 278 279 279 291 304 313 312 312 316 320 324 327 330 333 332 329 327 327 328 329
232 232 231 230 230 229 227 227 226 226 226 225 223 219 214 211 208 197 195 208 200 194 198 204 205 204 206 209 213 215 217 220 217 215 221 227 226 222 218 219 218 219 228 235 232 226 218 209 203 207 220 230 235 246 263 267 273 285 294 300 300 303 309 311 315 318 318 315 312 312 315 318 322 325
233 233 233 232 232 231 229 230 229 227 227 226 224 224 219 217 219 212 200 213 202 192 194 201 208 208 204 206 212 214 216 220 218 217 223 229 230 226 222 222 220 220 228 234 232 222 212 204 204 211 221 226 228 239 255 262 266 275 286 293 294 296 299 303 307 306 302 300 303 309 314 320 324 326
236 235 235 233 232 232 231 231 231 228 227 227 225 225 222 221 223 218 212 208 181 190 196 195 202 208 203 203 210 210 213 219 218 218 223 229 231 228 226 225 221 220 227 231 230 222 209 205 206 211 217 220 221 226 242 257 261 268 281 286 286 289 293 297 297 293 292 295 302 309 315 323 327 329
239 237 237 236 234 232 231 232 232 229 228 228 226 226 224 223 222 218 217 210 154 165 190 190 196 204 200 202 208 209 211 216 217 217 221 227 231 229 228 227 222 221 224 226 225 219 207 202 204 208 214 217 220 221 230 249 256 264 277 279 280 282 283 285 286 287 290 293 300 311 320 326 331 333
238 238 238 239 238 234 232 232 232 230 229 228 227 225 224 223 223 219 217 213 179 159 175 182 190 198 200 202 207 208 211 215 216 216 218 225 230 231 232 232 229 225 223 222 222 217 206 201 202 207 213 217 219 221 228 241 253 264 272 271 270 270 270 269 275 284 287 291 303 315 323 331 336 337
238 238 239 240 239 235 233 232 231 230 229 228 227 226 223 223 224 221 218 217 199 171 173 182 186 192 198 203 206 207 210 214 215 215 218 224 230 234 236 237 235 231 227 223 220 215 206 202 203 208 213 216 218 223 228 236 246 255 258 257 256 261 265 263 268 280 285 294 308 317 328 337 337 334
241 240 240 240 238 233 233 233 231 229 228 227 226 225 224 223 223 221 217 219 213 185 176 185 190 193 196 200 205 204 203 209 213 214 216 221 228 235 237 236 235 234 233 227 221 217 209 202 204 209 214 218 220 223 228 234 240 245 246 246 250 258 260 258 264 276 283 296 312 325 334 333 327 324
247 244 243 243 239 233 234 234 232 229 226 225 224 224 223 221 221 219 216 216 216 200 182 181 187 193 193 194 201 201 197 200 205 210 214 219 225 232 236 237 234 233 233 228 222 219 212 203 205 211 216 219 221 223 227 232 236 240 242 245 251 254 251 252 266 277 286 303 321 330 327 321 321 323
251 249 247 247 242 236 236 235 233 231 228 224 222 222 222 220 217 215 214 212 212 206 191 181 178 185 189 188 194 200 200 198 199 203 209 217 223 227 231 235 235 233 232 229 225 219 211 205 207 212 217 219 220 220 222 226 231 235 241 246 250 250 247 255 269 279 294 311 322 324 318 318 325 325
254 252 251 250 246 241 239 237 235 233 230 227 225 222 221 218 214 212 210 207 205 203 191 181 177 180 186 188 191 198 201 201 203 203 203 208 217 222 227 230 232 233 231 229 226 219 212 212 215 216 218 218 216 216 219 222 228 234 242 248 251 251 253 262 271 284 303 312 316 317 317 325 329 323
256 254 253 251 248 244 243 241 238 235 232 230 228 226 221 215 212 211 207 203 203 201 191 183 181 178 180 185 188 190 193 197 205 207 204 204 211 218 223 224 226 231 230 227 224 218 214 218 222 220 218 216 214 214 217 221 226 233 242 251 256 256 259 266 279 295 304 309 314 315 320 327 326 319
258 256 254 252 250 247 246 245 242 239 236 233 231 229 222 215 211 209 207 204 202 200 194 186 181 178 181 184 181 183 192 199 204 203 202 206 211 213 216 220 223 225 226 224 222 221 220 220 223 224 219 214 214 215 218 222 226 236 251 261 261 258 260 273 288 298 304 309 314 316 321 323 319 315
262 259 257 255 253 251 250 248 246 243 240 237 235 232 226 218 213 209 206 205 202 199 197 192 186 184 188 189 186 189 197 201 200 196 195 198 199 198 202 215 221 220 216 213 217 223 223 219 222 229 227 219 218 219 222 227 234 248 261 263 259 256 263 282 292 298 306 312 312 311 313 314 312 312
264 262 260 258 256 253 251 250 248 246 243 241 239 237 232 225 220 214 209 207 203 201 202 200 195 194 195 193 193 194 196 197 197 197 197 193 187 185 190 200 211 214 212 208 212 219 219 218 223 230 231 224 222 225 228 235 247 258 265 263 255 254 268 287 295 303 309 308 305 302 303 307 311 313
264 262 261 260 258 255 253 250 248 247 245 243 240 238 235 231 228 223 219 214 207 204 204 204 203 204 200 194 194 194 193 194 196 198 198 196 192 192 198 199 199 206 208 205 206 212 215 220 227 233 234 228 224 227 233 243 254 264 269 261 248 251 278 291 300 308 308 302 298 298 302 308 313 318
265 262 260 259 258 257 255 251 248 245 244 243 240 238 236 233 231 229 227 224 218 213 209 207 209 210 203 198 200 200 197 193 190 189 191 194 196 197 203 205 195 193 198 199 201 207 210 216 227 235 238 235 229 230 237 249 261 270 270 257 244 258 288 297 304 309 304 299 299 301 305 309 315 322
264 263 261 260 259 258 254 250 247 245 242 241 238 235 233 232 231 229 228 227 225 221 216 214 216 215 209 208 209 205 200 195 191 190 191 193 195 196 199 198 187 185 192 195 196 203 205 210 223 234 236 237 238 241 251 259 265 274 270 252 245 275 297 299 307 309 303 301 304 306 308 313 318 324
262 262 261 260 261 259 255 251 249 246 241 237 234 231 230 230 230 228 227 226 225 224 222 220 220 218 215 214 212 205 201 200 198 197 196 193 191 188 184 178 173 180 192 197 198 201 199 200 210 221 225 238 251 254 261 268 270 276 269 247 246 289 305 303 306 305 301 303 306 309 313 317 319 320
259 259 259 259 259 259 257 254 251 247 242 235 230 229 229 229 229 228 228 227 225 224 225 223 221 220 218 215 212 207 202 200 198 194 190 187 184 179 176 177 179 183 192 201 205 206 203 202 209 221 231 252 265 262 266 275 278 280 268 242 246 294 307 304 303 299 299 303 308 312 314 316 317 317
258 257 257 256 257 258 257 255 251 246 240 233 228 228 228 227 229 230 229 228 226 226 226 225 222 220 217 213 211 209 205 201 196 187 181 182 181 179 179 187 191 192 195 202 206 209 217 221 223 236 249 263 270 268 274 282 280 280 267 239 245 291 305 301 298 296 298 304 309 313 314 313 314 313
260 258 256 255 254 255 255 254 250 243 237 231 227 226 226 225 227 229 227 223 223 225 225 224 221 219 216 212 208 206 205 203 200 194 189 186 182 183 189 187 183 190 198 199 197 199 214 224 221 235 263 274 276 276 281 284 278 274 262 240 251 288 299 297 296 297 300 306 310 311 307 304 305 302
262 260 258 255 252 253 253 252 248 241 234 229 226 226 223 223 227 228 223 215 213 215 215 215 214 213 211 207 202 201 201 202 202 201 196 190 185 186 188 181 172 177 195 196 194 193 200 214 212 207 235 289 301 294 288 285 279 273 264 255 268 288 293 293 298 301 302 307 311 307 297 293 293 293
262 261 259 256 253 252 250 248 245 239 232 227 226 225 222 224 229 227 219 211 211 210 208 207 206 206 205 202 199 196 195 197 199 199 198 196 193 190 186 182 181 170 162 181 190 191 189 195 197 191 190 204 280 304 289 284 282 278 273 272 280 289 291 292 298 302 303 305 306 298 289 284 284 286
260 260 258 256 254 251 247 245 241 237 233 229 227 226 225 229 231 224 214 212 211 209 207 206 204 202 201 199 197 194 191 192 193 193 195 197 197 195 191 187 183 162 142 168 186 188 182 181 188 189 191 205 232 261 274 277 274 271 273 277 282 286 289 293 297 298 297 298 296 289 283 279 278 280
257 257 257 256 254 249 246 243 237 230 227 227 227 229 230 231 228 221 214 211 207 206 206 204 201 200 199 197 195 192 189 188 188 187 189 192 195 198 198 195 189 174 156 165 182 187 183 184 189 192 191 200 224 244 261 272 274 275 278 280 281 284 289 294 295 293 293 294 292 286 281 277 276 280
255 257 257 256 254 250 243 239 233 226 221 223 227 230 230 228 224 218 213 207 204 203 203 201 200 201 200 197 193 188 184 182 180 181 183 187 191 194 195 197 195 182 168 170 183 191 193 192 196 202 203 202 208 221 238 258 271 279 283 281 278 280 286 288 288 287 288 290 287 284 280 279 281 285
254 255 255 254 253 249 241 236 233 227 223 225 228 227 224 222 218 213 208 205 202 200 199 199 201 200 198 193 188 184 178 174 173 176 179 183 187 188 188 191 191 183 177 180 187 195 202 204 207 211 211 207 205 212 226 239 252 262 270 275 276 278 282 285 284 282 282 283 282 281 281 281 284 287
253 252 253 253 252 247 240 236 234 229 226 226 227 225 221 216 212 209 206 203 200 198 198 200 200 197 194 190 185 180 175 171 171 173 173 174 178 180 183 186 188 188 189 190 193 199 206 211 212 213 214 213 214 218 222 230 243 251 258 266 273 277 280 282 279 275 275 277 279 279 278 278 281 284
253 252 251 251 248 242 235 230 229 229 228 227 227 226 222 216 210 207 204 200 198 199 198 197 196 194 191 186 181 177 174 174 174 173 169 167 170 176 181 181 184 191 194 197 202 207 211 216 218 217 215 216 220 223 224 229 243 252 254 258 265 273 277 277 272 267 270 276 279 279 277 276 277 279
252 251 250 248 243 236 230 227 227 228 228 226 225 226 224 218 211 206 202 200 200 200 197 194 192 189 183 179 176 175 176 175 175 173 170 166 167 175 181 179 180 190 197 201 207 211 216 222 223 220 219 217 219 224 226 228 239 250 255 255 256 263 270 273 271 269 273 278 280 279 277 276 276 277
250 250 248 245 237 228 223 222 223 224 224 222 220 221 222 219 213 205 200 199 201 201 197 193 188 181 177 176 175 174 174 174 173 174 173 171 170 175 178 175 175 186 195 203 209 213 218 222 219 218 221 223 223 225 227 231 238 245 251 255 257 260 266 270 271 273 277 279 279 278 277 276 275 276
248 246 242 234 225 216 213 212 214 216 216 216 216 217 219 217 209 199 194 196 199 198 193 188 183 177 175 174 173 171 170 171 172 173 173 173 173 175 175 174 175 181 187 196 206 211 216 219 217 215 219 224 227 226 225 232 239 241 245 252 257 261 267 268 267 270 275 278 278 279 279 278 279 281
246 239 230 222 215 210 207 207 208 207 205 206 209 212 214 212 203 194 192 193 195 193 189 184 178 173 170 169 168 168 166 165 168 172 174 174 173 173 174 173 173 180 185 189 197 204 209 214 215 218 225 230 234 233 229 232 239 242 245 249 253 259 266 269 268 271 275 277 279 281 282 283 284 285
245 235 222 213 212 212 207 206 207 204 201 202 203 205 209 208 199 192 191 191 188 185 182 177 173 171 169 168 168 168 165 162 164 169 172 173 173 173 174 173 171 175 181 183 186 192 196 198 200 208 223 232 239 246 243 239 241 244 246 249 253 258 264 269 270 274 279 281 282 284 286 287 288 286
241 236 226 211 211 212 210 209 209 203 199 201 201 199 202 203 197 191 189 186 182 178 176 173 172 173 173 172 171 171 169 166 165 166 169 170 171 170 171 173 174 175 179 184 187 186 187 190 190 193 207 218 227 249 252 245 242 241 241 244 250 257 263 268 273 277 281 284 285 284 285 287 290 291
238 235 230 220 215 213 211 211 209 203 200 200 198 197 198 197 192 187 183 179 177 176 175 175 175 176 176 174 172 172 171 168 165 165 166 168 169 168 167 168 170 174 179 185 188 186 185 190 193 196 202 207 213 235 250 250 240 233 232 239 248 255 262 270 275 277 281 284 284 283 282 283 288 292
235 232 226 221 217 213 212 212 207 202 201 197 193 192 191 185 179 175 174 173 173 173 174 176 177 177 177 174 171 169 168 166 163 162 165 166 165 167 168 166 166 172 177 181 186 189 190 193 198 202 203 201 213 232 240 236 227 223 227 238 250 259 266 271 274 277 281 284 285 284 284 283 286 292
235 231 223 219 217 213 212 210 205 201 198 193 186 181 174 168 166 166 166 169 171 172 174 176 177 176 176 175 172 168 167 166 163 162 165 166 164 164 166 164 163 167 171 176 185 191 195 201 206 207 209 212 218 227 236 245 246 244 243 246 253 261 267 270 272 275 279 284 286 288 288 287 287 291
234 233 225 219 216 212 209 207 203 198 193 185 179 173 167 165 165 166 167 169 171 173 174 175 175 174 173 172 170 167 165 166 165 163 163 165 165 164 164 164 164 163 164 171 182 190 199 206 209 210 213 219 227 239 256 267 267 264 264 265 266 265 265 267 271 274 278 284 289 292 292 292 293 296
225 233 229 217 211 208 205 201 195 190 183 176 172 171 170 169 168 169 171 172 172 171 171 171 171 170 169 169 169 165 162 162 163 162 162 163 165 166 165 163 164 164 164 172 185 195 203 209 210 211 216 224 235 250 264 270 267 265 269 276 281 275 267 266 270 274 278 285 290 290 291 293 294 296
219 228 223 211 205 202 199 193 185 179 174 170 169 169 167 167 168 169 170 171 170 168 167 167 167 167 167 168 168 165 162 160 161 163 164 163 162 162 162 162 165 168 170 178 190 197 202 205 206 210 217 229 241 248 251 254 261 271 278 283 287 286 279 271 270 272 276 282 284 284 287 293 295 293
220 222 211 201 198 194 188 181 175 170 167 166 167 165 163 162 165 166 166 165 164 164 163 164 165 165 164 165 166 165 163 162 162 164 164 162 160 159 161 163 166 169 173 180 187 192 194 196 204 213 222 231 236 237 244 257 267 276 283 288 290 291 288 284 282 279 276 276 277 276 278 281 281 280
218 213 195 185 182 179 174 168 163 163 165 165 165 165 165 165 166 167 166 164 163 163 162 162 162 161 160 161 162 163 163 164 164 163 162 161 160 160 160 159 160 165 172 177 182 190 197 201 208 216 221 227 232 237 249 263 271 277 283 287 289 289 289 291 293 290 284 280 277 276 274 273 270 271
189 176 166 164 162 159 157 157 158 161 164 165 165 165 166 165 164 164 164 164 162 161 159 159 160 160 161 161 161 160 161 162 163 162 161 159 158 158 158 158 160 166 173 176 180 190 199 204 211 216 222 230 238 246 255 264 272 279 283 286 288 290 291 293 293 291 288 286 284 282 281 280 278 276